This is the latest recevied weather packets stored in our database for station/object KD8OZS. If no packets are shown the sender has not sent any weather packets the latest 10 day(s).
| Time | Temp. | Humidity | Pressure | Rain* | Wind** | Luminosity | Snow |
|---|---|---|---|---|---|---|---|
| 1787966461 | 15.56° C | 91% | 1014.5 hPa | 0 mm | - | 0 W/m² | - |
| 1787966161 | 15.56° C | 90% | 1014.4 hPa | 0 mm | - | 0 W/m² | - |
| 1787965855 | 15.56° C | 90% | 1014.2 hPa | 0 mm | - | 0 W/m² | - |
| 1787965550 | 16.11° C | 90% | 1014.1 hPa | 0 mm | - | 0 W/m² | - |
| 1787965245 | 16.11° C | 89% | 1014 hPa | 0 mm | - | 0 W/m² | - |
| 1787964939 | 16.11° C | 89% | 1014 hPa | 0 mm | - | 0 W/m² | - |
| 1787964634 | 16.11° C | 88% | 1014.3 hPa | 0 mm | - | 0 W/m² | - |
| 1787964333 | 16.67° C | 88% | 1013.8 hPa | 0 mm | - | 0 W/m² | - |
| 1787964032 | 16.67° C | 87% | 1013.8 hPa | 0 mm | - | 0 W/m² | - |
| 1787963727 | 16.67° C | 86% | 1013.8 hPa | 0 mm | - | 0 W/m² | - |
| 1787963423 | 17.22° C | 87% | 1013.7 hPa | 0 mm | - | 0 W/m² | - |
| 1787963118 | 17.22° C | 86% | 1013.7 hPa | 0 mm | - | 0 W/m² | - |
| 1787962817 | 17.78° C | 85% | 1013.8 hPa | 0 mm | - | 0 W/m² | - |
| 1787962516 | 17.78° C | 85% | 1013.6 hPa | 0 mm | - | 0 W/m² | - |
| 1787962215 | 18.89° C | 84% | 1013.5 hPa | 0 mm | - | 0 W/m² | - |
| 1787961910 | 18.89° C | 80% | 1013.1 hPa | 0 mm | - | 2 W/m² | - |
| 1787961609 | 19.44° C | 78% | 1013.2 hPa | 0 mm | - | 4 W/m² | - |
| 1787961302 | 21.11° C | 71% | 1013.4 hPa | 0 mm | - | 6 W/m² | - |
| 1787960997 | 21.11° C | 66% | 1013.3 hPa | 0 mm | - | 10 W/m² | - |
| 1787960692 | 22.22° C | 63% | 1013.2 hPa | 0 mm | - | 11 W/m² | - |
| 1787960391 | 22.22° C | 61% | 1013.2 hPa | 0 mm | - | 14 W/m² | - |
| 1787960086 | 22.78° C | 59% | 1013.2 hPa | 0 mm | - | 16 W/m² | - |
| 1787959780 | 22.22° C | 59% | 1013.4 hPa | 0 mm | - | 18 W/m² | - |
| 1787959476 | 22.22° C | 60% | 1013.5 hPa | 0 mm | - | 20 W/m² | - |
| 1787959171 | 22.78° C | 58% | 1013.3 hPa | 0 mm | - | 22 W/m² | - |
* Rain latest hour (hover to see other rain measurements)
** Current wind speed in m/s (hover to see current wind gust speed)